Station Historical Data
Daily Summary for July 6, 2017 Units:  English    Metric   Both
Next Day »
Daily Weekly Monthly Yearly Custom
  High: Low: Average:
Temperature: 90.9 °F 71.4 °F 79.7 °F
Dew Point: 60.9 °F 49.1 °F 53.6 °F
Humidity: 60% 29% 41%
Wind Speed: 15.0mph 0.0mph 2.2mph
Wind Gust: 16.0mph - -
Wind- - SSE
Pressure: 30.04 in 29.98 in -
Precipitation: 0.00 in    
Historical Graphs
 
 
Tabular Data for July 6, 2017
Time Temperature Dew Point Pressure Wind Wind Speed Wind Gust Humidity Rainfall Rate (Hourly) solar Conditions
00:04 73.1 °F 53.4 °F 30.01 in East 7.0 mph 11.0 mph 50% 0.00 in 0.00 W/m2
00:09 73.1 °F 53.4 °F 30.01 in East 5.0 mph 13.0 mph 50% 0.00 in 0.00 W/m2
00:14 73.1 °F 53.4 °F 30.01 in Calm   13.0 mph 50% 0.00 in 0.00 W/m2
00:19 73.1 °F 52.8 °F 30.01 in ESE 5.0 mph 13.0 mph 49% 0.00 in 0.00 W/m2
00:24 73.1 °F 52.8 °F 30.01 in Calm   13.0 mph 49% 0.00 in 0.00 W/m2
00:29 73.2 °F 52.9 °F 30.01 in ESE 7.0 mph 16.0 mph 49% 0.00 in 0.00 W/m2
00:34 73.2 °F 52.4 °F 30.01 in ESE 8.0 mph 14.0 mph 48% 0.00 in 0.00 W/m2
00:39 73.3 °F 52.5 °F 30.01 in East 9.0 mph 13.0 mph 48% 0.00 in 0.00 W/m2
00:44 73.3 °F 52.5 °F 30.01 in ESE 5.0 mph 12.0 mph 48% 0.00 in 0.00 W/m2
00:49 73.3 °F 52.5 °F 30.01 in Calm   12.0 mph 48% 0.00 in 0.00 W/m2
00:54 73.3 °F 52.5 °F 30.01 in East 8.0 mph 11.0 mph 48% 0.00 in 0.00 W/m2
00:59 73.4 °F 52.0 °F 30.01 in East 5.0 mph 14.0 mph 47% 0.00 in 0.00 W/m2
01:04 73.4 °F 52.0 °F 30.01 in East 8.0 mph 12.0 mph 47% 0.00 in 0.00 W/m2
01:09 73.4 °F 52.0 °F 30.01 in ESE 9.0 mph 14.0 mph 47% 0.00 in 0.00 W/m2
01:14 73.4 °F 52.0 °F 30.01 in ESE 8.0 mph 13.0 mph 47% 0.00 in 0.00 W/m2
01:19 73.4 °F 52.0 °F 30.01 in East 6.0 mph 13.0 mph 47% 0.00 in 0.00 W/m2
01:24 73.4 °F 52.0 °F 30.01 in ESE 7.0 mph 13.0 mph 47% 0.00 in 0.00 W/m2
01:29 73.4 °F 52.0 °F 30.01 in East 5.0 mph 13.0 mph 47% 0.00 in 0.00 W/m2
01:34 73.4 °F 51.4 °F 30.01 in East 5.0 mph 12.0 mph 46% 0.00 in 0.00 W/m2
01:39 73.4 °F 51.4 °F 30.01 in ESE 9.0 mph 12.0 mph 46% 0.00 in 0.00 W/m2
01:44 73.4 °F 51.4 °F 30.01 in ESE 8.0 mph 14.0 mph 46% 0.00 in 0.00 W/m2
01:49 73.3 °F 51.3 °F 30.01 in East 1.0 mph 16.0 mph 46% 0.00 in 0.00 W/m2
01:58 73.3 °F 51.3 °F 30.01 in East 1.0 mph 13.0 mph 46% 0.00 in 0.00 W/m2
02:09 73.3 °F 51.3 °F 30.01 in Calm   12.0 mph 46% 0.00 in 0.00 W/m2
02:14 73.3 °F 51.3 °F 30.01 in East 6.0 mph 13.0 mph 46% 0.00 in 0.00 W/m2
02:16 73.2 °F 51.2 °F 30.01 in ESE 6.0 mph 11.0 mph 46% 0.00 in 0.00 W/m2
02:19 73.2 °F 50.6 °F 30.01 in East 7.0 mph 15.0 mph 45% 0.00 in 0.00 W/m2
02:20 73.2 °F 50.6 °F 30.01 in East 1.0 mph 15.0 mph 45% 0.00 in 0.00 W/m2
02:21 73.3 °F 50.7 °F 30.01 in ESE 8.0 mph 12.0 mph 45% 0.00 in 0.00 W/m2
02:22 73.3 °F 50.7 °F 30.01 in ESE 1.0 mph 12.0 mph 45% 0.00 in 0.00 W/m2
02:24 73.2 °F 51.2 °F 30.01 in East 4.0 mph 13.0 mph 46% 0.00 in 0.00 W/m2
02:26 73.2 °F 51.2 °F 30.01 in East 2.0 mph 4.0 mph 46% 0.00 in 0.00 W/m2
02:30 73.2 °F 51.2 °F 30.01 in East 2.0 mph 13.0 mph 46% 0.00 in 0.00 W/m2
02:31 73.2 °F 51.2 °F 30.01 in East 5.0 mph 7.0 mph 46% 0.00 in 0.00 W/m2
02:36 73.3 °F 50.7 °F 30.00 in East 1.0 mph 4.0 mph 45% 0.00 in 0.00 W/m2
02:41 73.2 °F 50.6 °F 30.01 in ESE 4.0 mph 7.0 mph 45% 0.00 in 0.00 W/m2
02:46 73.2 °F 50.6 °F 30.00 in ESE 5.0 mph 14.0 mph 45% 0.00 in 0.00 W/m2
02:51 73.2 °F 50.6 °F 30.00 in Calm   5.0 mph 45% 0.00 in 0.00 W/m2
02:56 73.1 °F 50.5 °F 30.00 in ESE 5.0 mph 12.0 mph 45% 0.00 in 0.00 W/m2
03:01 73.1 °F 50.5 °F 30.00 in ESE 6.0 mph 11.0 mph 45% 0.00 in 0.00 W/m2
03:06 73.1 °F 50.5 °F 30.00 in ESE 2.0 mph 7.0 mph 45% 0.00 in 0.00 W/m2
03:11 73.0 °F 50.4 °F 30.00 in ESE 6.0 mph 11.0 mph 45% 0.00 in 0.00 W/m2
03:16 73.0 °F 50.4 °F 30.00 in East 6.0 mph 8.0 mph 45% 0.00 in 0.00 W/m2
03:21 73.0 °F 50.4 °F 30.00 in East 2.0 mph 6.0 mph 45% 0.00 in 0.00 W/m2
03:26 72.9 °F 50.3 °F 30.00 in ESE 8.0 mph 12.0 mph 45% 0.00 in 0.00 W/m2
03:31 72.9 °F 50.3 °F 30.00 in ESE 8.0 mph 8.0 mph 45% 0.00 in 0.00 W/m2
03:36 72.8 °F 49.6 °F 30.00 in Calm   12.0 mph 44% 0.00 in 0.00 W/m2
03:41 72.8 °F 50.2 °F 30.00 in Calm   12.0 mph 45% 0.00 in 0.00 W/m2
03:46 72.7 °F 50.2 °F 30.00 in Calm   6.0 mph 45% 0.00 in 0.00 W/m2
03:51 72.7 °F 50.2 °F 30.00 in ESE 6.0 mph 9.0 mph 45% 0.00 in 0.00 W/m2
03:56 72.6 °F 50.1 °F 30.00 in Calm   8.0 mph 45% 0.00 in 0.00 W/m2
04:01 72.6 °F 50.1 °F 30.00 in Calm   7.0 mph 45% 0.00 in 0.00 W/m2
04:06 72.5 °F 50.0 °F 30.00 in ESE 4.0 mph 11.0 mph 45% 0.00 in 0.00 W/m2
04:11 72.5 °F 50.0 °F 30.00 in East 12.0 mph 12.0 mph 45% 0.00 in 0.00 W/m2
04:16 72.5 °F 50.0 °F 30.00 in SE 6.0 mph 8.0 mph 45% 0.00 in 0.00 W/m2
04:21 72.4 °F 49.9 °F 30.00 in East 6.0 mph 8.0 mph 45% 0.00 in 0.00 W/m2
04:26 72.3 °F 49.8 °F 30.00 in ESE 5.0 mph 9.0 mph 45% 0.00 in 0.00 W/m2
04:31 72.3 °F 49.8 °F 30.00 in ESE 12.0 mph 12.0 mph 45% 0.00 in 0.00 W/m2
04:36 72.3 °F 49.8 °F 30.00 in East 4.0 mph 9.0 mph 45% 0.00 in 0.00 W/m2
04:41 72.2 °F 49.7 °F 30.00 in Calm     45% 0.00 in 0.00 W/m2
04:46 72.2 °F 49.7 °F 30.00 in East 4.0 mph 6.0 mph 45% 0.00 in 0.00 W/m2
04:51 72.2 °F 49.7 °F 30.00 in East 2.0 mph 9.0 mph 45% 0.00 in 0.00 W/m2
04:56 72.2 °F 49.7 °F 30.00 in Calm   4.0 mph 45% 0.00 in 0.00 W/m2
05:01 72.2 °F 49.7 °F 30.00 in East 8.0 mph 9.0 mph 45% 0.00 in 0.00 W/m2
05:06 72.2 °F 49.7 °F 30.00 in Calm   11.0 mph 45% 0.00 in 0.00 W/m2
05:11 72.1 °F 49.6 °F 30.01 in East 11.0 mph 12.0 mph 45% 0.00 in 0.00 W/m2
05:16 72.2 °F 49.7 °F 30.01 in ESE 6.0 mph 14.0 mph 45% 0.00 in 0.00 W/m2
05:21 72.2 °F 49.7 °F 30.01 in East 1.0 mph 9.0 mph 45% 0.00 in 0.00 W/m2
05:26 72.2 °F 49.7 °F 30.00 in East 6.0 mph 9.0 mph 45% 0.00 in 0.00 W/m2
05:31 72.2 °F 49.1 °F 30.01 in East 7.0 mph 7.0 mph 44% 0.00 in 0.00 W/m2
05:36 72.2 °F 49.7 °F 30.01 in SE 9.0 mph 9.0 mph 45% 0.00 in 0.00 W/m2
05:41 72.2 °F 49.1 °F 30.01 in East 4.0 mph 12.0 mph 44% 0.00 in 0.00 W/m2
05:46 72.2 °F 49.7 °F 30.01 in East 5.0 mph 11.0 mph 45% 0.00 in 5.00 W/m2
05:51 72.2 °F 49.7 °F 30.01 in ESE 4.0 mph 12.0 mph 45% 0.00 in 7.00 W/m2
06:01 72.2 °F 49.7 °F 30.01 in East 15.0 mph 15.0 mph 45% 0.00 in 11.00 W/m2
06:06 72.1 °F 49.6 °F 30.01 in ESE 7.0 mph 8.0 mph 45% 0.00 in 12.00 W/m2
06:11 72.1 °F 49.6 °F 30.01 in East 6.0 mph 8.0 mph 45% 0.00 in 16.00 W/m2
06:16 72.0 °F 49.5 °F 30.01 in Calm   8.0 mph 45% 0.00 in 18.00 W/m2
06:21 72.0 °F 49.5 °F 30.01 in ESE 2.0 mph 6.0 mph 45% 0.00 in 28.00 W/m2
06:26 71.9 °F 50.0 °F 30.01 in East 13.0 mph 13.0 mph 46% 0.00 in 39.00 W/m2
06:31 71.8 °F 50.5 °F 30.01 in East 6.0 mph 6.0 mph 47% 0.00 in 51.00 W/m2
06:36 71.7 °F 50.4 °F 30.02 in ESE 7.0 mph 12.0 mph 47% 0.00 in 63.00 W/m2
06:41 71.7 °F 50.4 °F 30.02 in Calm   9.0 mph 47% 0.00 in 77.00 W/m2
06:46 71.6 °F 50.9 °F 30.02 in ESE 8.0 mph 16.0 mph 48% 0.00 in 93.00 W/m2
06:51 71.5 °F 50.8 °F 30.02 in East 8.0 mph 12.0 mph 48% 0.00 in 111.00 W/m2
06:56 71.4 °F 50.7 °F 30.02 in East 6.0 mph 11.0 mph 48% 0.00 in 125.00 W/m2
07:02 71.4 °F 50.7 °F 30.02 in East 4.0 mph 9.0 mph 48% 0.00 in 146.00 W/m2
07:07 71.4 °F 51.3 °F 30.02 in East 6.0 mph 11.0 mph 49% 0.00 in 167.00 W/m2
07:12 71.4 °F 51.8 °F 30.02 in ESE 7.0 mph 7.0 mph 50% 0.00 in 185.00 W/m2
07:17 71.5 °F 51.9 °F 30.02 in Calm   5.0 mph 50% 0.00 in 206.00 W/m2
07:22 71.5 °F 51.9 °F 30.02 in East 1.0 mph 8.0 mph 50% 0.00 in 221.00 W/m2
07:27 71.5 °F 51.9 °F 30.02 in East 9.0 mph 9.0 mph 50% 0.00 in 241.00 W/m2
07:32 71.5 °F 52.4 °F 30.02 in East 5.0 mph 9.0 mph 51% 0.00 in 260.00 W/m2
07:37 71.6 °F 52.5 °F 30.02 in Calm   7.0 mph 51% 0.00 in 276.00 W/m2
07:42 71.7 °F 53.2 °F 30.03 in ESE 4.0 mph 9.0 mph 52% 0.00 in 294.00 W/m2
07:47 71.7 °F 53.2 °F 30.03 in Calm   8.0 mph 52% 0.00 in 308.00 W/m2
07:52 71.8 °F 53.2 °F 30.03 in Calm   8.0 mph 52% 0.00 in 325.00 W/m2
07:57 71.9 °F 53.9 °F 30.03 in East 2.0 mph 5.0 mph 53% 0.00 in 341.00 W/m2
08:02 71.9 °F 54.4 °F 30.03 in Calm   7.0 mph 54% 0.00 in 357.00 W/m2
08:07 72.0 °F 55.0 °F 30.03 in Calm   11.0 mph 55% 0.00 in 373.00 W/m2
08:12 72.1 °F 55.1 °F 30.03 in East 4.0 mph 7.0 mph 55% 0.00 in 387.00 W/m2
08:17 72.2 °F 55.7 °F 30.03 in ESE 1.0 mph 5.0 mph 56% 0.00 in 403.00 W/m2
08:22 72.4 °F 56.3 °F 30.03 in Calm   6.0 mph 57% 0.00 in 418.00 W/m2
08:27 72.5 °F 56.4 °F 30.03 in Calm   1.0 mph 57% 0.00 in 434.00 W/m2
08:32 72.7 °F 56.6 °F 30.03 in Calm   4.0 mph 57% 0.00 in 450.00 W/m2
08:37 72.9 °F 56.8 °F 30.03 in Calm   1.0 mph 57% 0.00 in 466.00 W/m2
08:42 73.1 °F 57.5 °F 30.03 in Calm   4.0 mph 58% 0.00 in 482.00 W/m2
08:47 73.5 °F 58.3 °F 30.03 in Calm   1.0 mph 59% 0.00 in 497.00 W/m2
08:52 73.8 °F 59.1 °F 30.03 in Calm     60% 0.00 in 512.00 W/m2
08:57 74.2 °F 59.4 °F 30.04 in Calm     60% 0.00 in 524.00 W/m2
09:02 74.6 °F 59.8 °F 30.03 in Calm     60% 0.00 in 540.00 W/m2
09:07 74.8 °F 58.1 °F 30.03 in Calm     56% 0.00 in 554.00 W/m2
09:12 75.2 °F 60.4 °F 30.03 in Calm     60% 0.00 in 570.00 W/m2
09:17 75.6 °F 59.8 °F 30.03 in Calm     58% 0.00 in 584.00 W/m2
09:22 75.9 °F 60.6 °F 30.03 in Calm     59% 0.00 in 598.00 W/m2
09:27 76.2 °F 60.4 °F 30.03 in Calm     58% 0.00 in 612.00 W/m2
09:32 76.4 °F 60.1 °F 30.03 in Calm     57% 0.00 in 626.00 W/m2
09:38 76.7 °F 59.8 °F 30.03 in Calm     56% 0.00 in 638.00 W/m2
09:39 76.8 °F 59.9 °F 30.03 in Calm     56% 0.00 in 642.00 W/m2
09:44 77.3 °F 60.9 °F 30.03 in Calm     57% 0.00 in 654.00 W/m2
09:49 77.8 °F 57.7 °F 30.03 in Calm     50% 0.00 in 668.00 W/m2
09:54 78.5 °F 56.6 °F 30.03 in Calm   1.0 mph 47% 0.00 in 680.00 W/m2
09:59 79.0 °F 56.5 °F 30.03 in Calm     46% 0.00 in 693.00 W/m2
10:04 79.5 °F 55.1 °F 30.03 in East 2.0 mph 4.0 mph 43% 0.00 in 705.00 W/m2
10:09 80.0 °F 58.0 °F 30.03 in Calm   2.0 mph 47% 0.00 in 717.00 W/m2
10:14 80.4 °F 56.5 °F 30.03 in Calm   2.0 mph 44% 0.00 in 729.00 W/m2
10:19 80.8 °F 54.2 °F 30.03 in Calm   1.0 mph 40% 0.00 in 740.00 W/m2
10:24 81.2 °F 53.9 °F 30.03 in Calm   3.0 mph 39% 0.00 in 752.00 W/m2
10:29 81.6 °F 55.0 °F 30.03 in Calm   3.0 mph 40% 0.00 in 765.00 W/m2
10:34 82.0 °F 54.6 °F 30.03 in Calm     39% 0.00 in 773.00 W/m2
10:39 82.3 °F 54.9 °F 30.03 in Calm   1.0 mph 39% 0.00 in 784.00 W/m2
10:44 82.7 °F 57.3 °F 30.04 in NNE 1.0 mph 1.0 mph 42% 0.00 in 793.00 W/m2
10:49 83.1 °F 57.7 °F 30.03 in Calm   2.0 mph 42% 0.00 in 802.00 W/m2
10:54 83.6 °F 58.1 °F 30.03 in Calm   1.0 mph 42% 0.00 in 812.00 W/m2
11:04 84.1 °F 55.0 °F 30.03 in NNW 1.0 mph 2.0 mph 37% 0.00 in 831.00 W/m2
11:09 84.3 °F 56.0 °F 30.03 in WNW 1.0 mph 4.0 mph 38% 0.00 in 840.00 W/m2
11:14 84.5 °F 53.9 °F 30.04 in Calm   1.0 mph 35% 0.00 in 849.00 W/m2
11:19 84.6 °F 53.2 °F 30.04 in Calm   3.0 mph 34% 0.00 in 856.00 W/m2
11:24 84.8 °F 53.3 °F 30.04 in Calm   1.0 mph 34% 0.00 in 863.00 W/m2
11:29 85.0 °F 52.7 °F 30.04 in Calm   1.0 mph 33% 0.00 in 868.00 W/m2
11:34 85.2 °F 54.5 °F 30.03 in WNW 2.0 mph 4.0 mph 35% 0.00 in 875.00 W/m2
11:39 85.4 °F 53.9 °F 30.04 in West 4.0 mph 5.0 mph 34% 0.00 in 884.00 W/m2
11:44 85.9 °F 55.1 °F 30.04 in West 1.0 mph 6.0 mph 35% 0.00 in 888.00 W/m2
11:49 86.2 °F 54.6 °F 30.03 in Calm   5.0 mph 34% 0.00 in 893.00 W/m2
11:54 86.6 °F 56.5 °F 30.03 in West 2.0 mph 3.0 mph 36% 0.00 in 896.00 W/m2
11:59 86.9 °F 56.8 °F 30.03 in West 4.0 mph 6.0 mph 36% 0.00 in 902.00 W/m2
12:04 87.4 °F 58.0 °F 30.03 in Calm   4.0 mph 37% 0.00 in 905.00 W/m2
12:09 87.7 °F 59.0 °F 30.03 in West 3.0 mph 3.0 mph 38% 0.00 in 911.00 W/m2
12:14 87.8 °F 59.1 °F 30.03 in Calm   6.0 mph 38% 0.00 in 914.00 W/m2
12:19 87.9 °F 57.6 °F 30.03 in West 3.0 mph 3.0 mph 36% 0.00 in 918.00 W/m2
12:24 88.1 °F 58.6 °F 30.03 in Calm   2.0 mph 37% 0.00 in 921.00 W/m2
12:29 88.4 °F 57.3 °F 30.03 in West 1.0 mph 5.0 mph 35% 0.00 in 923.00 W/m2
12:34 88.6 °F 56.7 °F 30.03 in West 1.0 mph 5.0 mph 34% 0.00 in 926.00 W/m2
12:39 88.9 °F 57.7 °F 30.03 in NW 5.0 mph 6.0 mph 35% 0.00 in 926.00 W/m2
12:45 89.0 °F 56.2 °F 30.03 in Calm   7.0 mph 33% 0.00 in 930.00 W/m2
12:50 89.1 °F 54.6 °F 30.03 in Calm   5.0 mph 31% 0.00 in 930.00 W/m2
12:55 89.1 °F 56.3 °F 30.03 in NW 4.0 mph 7.0 mph 33% 0.00 in 932.00 W/m2
13:00 89.2 °F 55.5 °F 30.03 in WSW 5.0 mph 8.0 mph 32% 0.00 in 930.00 W/m2
13:05 89.5 °F 56.6 °F 30.03 in WSW 1.0 mph 6.0 mph 33% 0.00 in 930.00 W/m2
13:10 90.0 °F 57.9 °F 30.03 in Calm   10.0 mph 34% 0.00 in 930.00 W/m2
13:15 90.4 °F 59.0 °F 30.02 in WNW 4.0 mph 6.0 mph 35% 0.00 in 930.00 W/m2
13:20 90.5 °F 58.3 °F 30.02 in NNW 1.0 mph 8.0 mph 34% 0.00 in 932.00 W/m2
13:25 90.5 °F 57.5 °F 30.02 in Calm   8.0 mph 33% 0.00 in 928.00 W/m2
13:30 90.3 °F 57.3 °F 30.02 in Calm   4.0 mph 33% 0.00 in 926.00 W/m2
13:35 90.4 °F 58.2 °F 30.03 in WNW 6.0 mph 8.0 mph 34% 0.00 in 925.00 W/m2
13:40 90.4 °F 56.6 °F 30.02 in WNW 7.0 mph 9.0 mph 32% 0.00 in 923.00 W/m2
13:45 90.4 °F 55.7 °F 30.02 in WNW 7.0 mph 8.0 mph 31% 0.00 in 919.00 W/m2
13:50 90.4 °F 55.7 °F 30.02 in Calm   7.0 mph 31% 0.00 in 918.00 W/m2
13:55 90.4 °F 56.6 °F 30.02 in West 1.0 mph 7.0 mph 32% 0.00 in 914.00 W/m2
14:00 90.2 °F 58.1 °F 30.02 in Calm   6.0 mph 34% 0.00 in 911.00 W/m2
14:05 90.2 °F 54.6 °F 30.02 in WNW 4.0 mph 8.0 mph 30% 0.00 in 905.00 W/m2
14:10 90.5 °F 55.8 °F 30.02 in West 5.0 mph 9.0 mph 31% 0.00 in 902.00 W/m2
14:15 90.9 °F 55.2 °F 30.02 in Calm   8.0 mph 30% 0.00 in 898.00 W/m2
14:20 90.8 °F 56.0 °F 30.02 in Calm   6.0 mph 31% 0.00 in 891.00 W/m2
14:25 90.5 °F 55.8 °F 30.02 in Calm   8.0 mph 31% 0.00 in 886.00 W/m2
14:30 90.3 °F 55.6 °F 30.02 in WSW 5.0 mph 10.0 mph 31% 0.00 in 881.00 W/m2
14:35 90.4 °F 54.8 °F 30.02 in West 1.0 mph 3.0 mph 30% 0.00 in 874.00 W/m2
14:40 90.6 °F 55.0 °F 30.02 in SW 4.0 mph 8.0 mph 30% 0.00 in 867.00 W/m2
14:45 90.6 °F 57.6 °F 30.02 in West 2.0 mph 8.0 mph 33% 0.00 in 861.00 W/m2
14:50 90.6 °F 54.0 °F 30.02 in West 1.0 mph 9.0 mph 29% 0.00 in 854.00 W/m2
14:55 90.6 °F 55.0 °F 30.02 in Calm   5.0 mph 30% 0.00 in 846.00 W/m2
15:00 90.5 °F 55.8 °F 30.02 in Calm   9.0 mph 31% 0.00 in 837.00 W/m2
15:05 90.5 °F 53.9 °F 30.01 in Calm   8.0 mph 29% 0.00 in 828.00 W/m2
15:10 90.4 °F 54.8 °F 30.01 in Calm   5.0 mph 30% 0.00 in 821.00 W/m2
15:15 90.2 °F 54.6 °F 30.01 in NNW 3.0 mph 6.0 mph 30% 0.00 in 810.00 W/m2
15:20 90.0 °F 56.2 °F 30.01 in WSW 3.0 mph 6.0 mph 32% 0.00 in 800.00 W/m2
15:25 89.9 °F 54.3 °F 30.01 in West 4.0 mph 7.0 mph 30% 0.00 in 789.00 W/m2
15:30 90.0 °F 54.4 °F 30.01 in NW 7.0 mph 10.0 mph 30% 0.00 in 780.00 W/m2
15:35 90.1 °F 55.4 °F 30.01 in Calm   7.0 mph 31% 0.00 in 770.00 W/m2
15:40 90.2 °F 54.6 °F 30.01 in Calm   7.0 mph 30% 0.00 in 759.00 W/m2
15:45 90.1 °F 54.5 °F 30.00 in West 6.0 mph 10.0 mph 30% 0.00 in 749.00 W/m2
15:50 90.0 °F 55.3 °F 30.00 in Calm   9.0 mph 31% 0.00 in 738.00 W/m2
15:55 89.9 °F 55.2 °F 30.00 in Calm   2.0 mph 31% 0.00 in 726.00 W/m2
16:00 89.8 °F 55.2 °F 30.00 in WSW 2.0 mph 9.0 mph 31% 0.00 in 715.00 W/m2
16:06 89.8 °F 56.0 °F 30.00 in West 4.0 mph 6.0 mph 32% 0.00 in 705.00 W/m2
16:11 89.9 °F 54.3 °F 30.00 in Calm   9.0 mph 30% 0.00 in 691.00 W/m2
16:16 90.2 °F 54.6 °F 30.00 in WNW 2.0 mph 3.0 mph 30% 0.00 in 680.00 W/m2
16:21 90.2 °F 53.7 °F 30.00 in Calm   6.0 mph 29% 0.00 in 671.00 W/m2
16:26 90.3 °F 53.8 °F 30.00 in West 4.0 mph 8.0 mph 29% 0.00 in 656.00 W/m2
16:31 90.3 °F 55.6 °F 30.00 in Calm   4.0 mph 31% 0.00 in 642.00 W/m2
16:36 90.2 °F 53.7 °F 30.00 in WNW 4.0 mph 5.0 mph 29% 0.00 in 628.00 W/m2
16:41 90.2 °F 54.6 °F 30.00 in Calm   6.0 mph 30% 0.00 in 612.00 W/m2
16:46 90.1 °F 53.6 °F 30.00 in Calm   6.0 mph 29% 0.00 in 599.00 W/m2
16:51 90.0 °F 54.4 °F 30.00 in Calm   2.0 mph 30% 0.00 in 589.00 W/m2
16:56 89.8 °F 54.3 °F 29.99 in Calm   5.0 mph 30% 0.00 in 577.00 W/m2
17:01 89.7 °F 55.1 °F 29.99 in Calm   7.0 mph 31% 0.00 in 561.00 W/m2
17:06 89.6 °F 55.9 °F 29.99 in Calm   3.0 mph 32% 0.00 in 547.00 W/m2
17:11 89.5 °F 55.8 °F 29.99 in NW 4.0 mph 8.0 mph 32% 0.00 in 533.00 W/m2
17:16 89.3 °F 54.7 °F 29.99 in West 3.0 mph 6.0 mph 31% 0.00 in 517.00 W/m2
17:21 89.2 °F 54.6 °F 29.99 in Calm   5.0 mph 31% 0.00 in 501.00 W/m2
17:26 89.2 °F 54.6 °F 29.98 in WNW 1.0 mph 6.0 mph 31% 0.00 in 489.00 W/m2
17:31 89.0 °F 53.6 °F 29.98 in West 1.0 mph 5.0 mph 30% 0.00 in 475.00 W/m2
17:36 89.0 °F 55.3 °F 29.98 in Calm   1.0 mph 32% 0.00 in 459.00 W/m2
17:41 88.9 °F 54.4 °F 29.98 in NW 2.0 mph 6.0 mph 31% 0.00 in 445.00 W/m2
17:46 88.8 °F 54.3 °F 29.98 in Calm   2.0 mph 31% 0.00 in 427.00 W/m2
17:51 88.6 °F 55.0 °F 29.98 in Calm     32% 0.00 in 413.00 W/m2
17:56 88.6 °F 55.0 °F 29.98 in Calm     32% 0.00 in 399.00 W/m2
18:01 88.4 °F 54.0 °F 29.98 in Calm   2.0 mph 31% 0.00 in 380.00 W/m2
18:06 88.3 °F 53.9 °F 29.98 in Calm   1.0 mph 31% 0.00 in 366.00 W/m2
18:11 88.2 °F 54.7 °F 29.98 in Calm     32% 0.00 in 350.00 W/m2
18:16 88.1 °F 56.2 °F 29.98 in Calm     34% 0.00 in 336.00 W/m2
18:21 87.9 °F 55.2 °F 29.98 in Calm   3.0 mph 33% 0.00 in 322.00 W/m2
18:26 87.8 °F 56.0 °F 29.98 in Calm     34% 0.00 in 304.00 W/m2
18:31 87.7 °F 56.7 °F 29.98 in Calm     35% 0.00 in 288.00 W/m2
18:36 87.5 °F 55.7 °F 29.98 in Calm   1.0 mph 34% 0.00 in 272.00 W/m2
18:41 87.3 °F 55.5 °F 29.98 in Calm   2.0 mph 34% 0.00 in 257.00 W/m2
18:46 87.1 °F 56.2 °F 29.98 in WNW 1.0 mph 3.0 mph 35% 0.00 in 239.00 W/m2
18:51 86.8 °F 57.4 °F 29.98 in Calm   2.0 mph 37% 0.00 in 225.00 W/m2
18:52 86.8 °F 57.4 °F 29.98 in Calm   2.0 mph 37% 0.00 in 223.00 W/m2
18:57 86.4 °F 57.8 °F 29.98 in Calm     38% 0.00 in 207.00 W/m2
19:02 85.9 °F 57.4 °F 29.98 in Calm     38% 0.00 in 195.00 W/m2
19:07 85.3 °F 56.8 °F 29.98 in West 2.0 mph 6.0 mph 38% 0.00 in 179.00 W/m2
19:12 84.8 °F 57.1 °F 29.98 in Calm   5.0 mph 39% 0.00 in 162.00 W/m2
19:17 84.4 °F 57.5 °F 29.98 in Calm   1.0 mph 40% 0.00 in 142.00 W/m2
19:22 83.9 °F 57.7 °F 29.98 in Calm   4.0 mph 41% 0.00 in 123.00 W/m2
19:27 83.5 °F 57.3 °F 29.98 in West 1.0 mph 7.0 mph 41% 0.00 in 105.00 W/m2
19:32 82.9 °F 56.1 °F 29.98 in Calm   4.0 mph 40% 0.00 in 88.00 W/m2
19:37 82.4 °F 55.7 °F 29.98 in Calm   1.0 mph 40% 0.00 in 72.00 W/m2
19:42 81.8 °F 55.1 °F 29.98 in Calm   1.0 mph 40% 0.00 in 58.00 W/m2
19:47 81.4 °F 54.8 °F 29.98 in Calm   4.0 mph 40% 0.00 in 47.00 W/m2
19:52 81.0 °F 55.1 °F 29.98 in Calm     41% 0.00 in 37.00 W/m2
19:57 80.6 °F 54.8 °F 29.98 in Calm     41% 0.00 in 26.00 W/m2
20:02 80.4 °F 55.2 °F 29.98 in Calm     42% 0.00 in 19.00 W/m2
20:07 80.0 °F 54.2 °F 29.98 in Calm     41% 0.00 in 14.00 W/m2
20:12 79.8 °F 54.7 °F 29.98 in Calm     42% 0.00 in 12.00 W/m2
20:17 79.4 °F 54.3 °F 29.99 in Calm     42% 0.00 in 11.00 W/m2
20:22 79.2 °F 53.5 °F 29.99 in Calm     41% 0.00 in 9.00 W/m2
20:27 78.9 °F 53.9 °F 29.99 in Calm     42% 0.00 in 7.00 W/m2
20:32 78.6 °F 53.0 °F 29.99 in Calm     41% 0.00 in 5.00 W/m2
20:38 78.3 °F 52.7 °F 29.99 in Calm     41% 0.00 in 0.00 W/m2
20:43 78.0 °F 52.4 °F 29.99 in Calm     41% 0.00 in 0.00 W/m2
20:48 77.7 °F 52.2 °F 29.99 in Calm     41% 0.00 in 0.00 W/m2
20:53 77.5 °F 52.0 °F 29.99 in Calm     41% 0.00 in 0.00 W/m2
20:58 77.3 °F 51.8 °F 29.99 in Calm     41% 0.00 in 0.00 W/m2
21:03 77.1 °F 50.9 °F 29.99 in Calm     40% 0.00 in 0.00 W/m2
21:08 77.0 °F 50.9 °F 29.99 in Calm     40% 0.00 in 0.00 W/m2
21:13 76.8 °F 50.7 °F 30.00 in Calm     40% 0.00 in 0.00 W/m2
21:18 76.7 °F 50.6 °F 30.00 in Calm     40% 0.00 in 0.00 W/m2
21:23 76.7 °F 50.6 °F 30.00 in Calm     40% 0.00 in 0.00 W/m2
21:28 76.7 °F 49.9 °F 30.00 in Calm     39% 0.00 in 0.00 W/m2
21:33 76.6 °F 49.8 °F 30.00 in Calm     39% 0.00 in 0.00 W/m2
21:38 76.6 °F 49.8 °F 30.00 in Calm     39% 0.00 in 0.00 W/m2
21:43 76.6 °F 49.8 °F 30.00 in Calm     39% 0.00 in 0.00 W/m2
21:48 76.5 °F 49.7 °F 30.00 in Calm     39% 0.00 in 0.00 W/m2
21:53 76.5 °F 50.4 °F 30.00 in Calm     40% 0.00 in 0.00 W/m2
21:58 76.5 °F 49.7 °F 30.00 in Calm     39% 0.00 in 0.00 W/m2
22:03 76.5 °F 49.7 °F 30.00 in Calm   1.0 mph 39% 0.00 in 0.00 W/m2
22:08 76.5 °F 49.7 °F 30.00 in WNW 1.0 mph 1.0 mph 39% 0.00 in 0.00 W/m2
22:13 76.4 °F 49.6 °F 30.00 in Calm   1.0 mph 39% 0.00 in 0.00 W/m2
22:18 76.4 °F 50.3 °F 30.00 in Calm   1.0 mph 40% 0.00 in 0.00 W/m2
22:23 76.3 °F 50.2 °F 30.00 in Calm   2.0 mph 40% 0.00 in 0.00 W/m2
22:28 76.3 °F 50.2 °F 30.00 in Calm   2.0 mph 40% 0.00 in 0.00 W/m2
22:33 76.2 °F 50.8 °F 30.00 in Calm   3.0 mph 41% 0.00 in 0.00 W/m2
22:38 76.2 °F 51.5 °F 30.00 in Calm   5.0 mph 42% 0.00 in 0.00 W/m2
22:43 76.2 °F 51.5 °F 30.00 in WNW 1.0 mph 1.0 mph 42% 0.00 in 0.00 W/m2
22:49 76.1 °F 51.4 °F 30.00 in Calm   2.0 mph 42% 0.00 in 0.00 W/m2
22:54 76.1 °F 51.4 °F 30.00 in Calm   4.0 mph 42% 0.00 in 0.00 W/m2
22:59 76.0 °F 51.9 °F 30.00 in Calm   5.0 mph 43% 0.00 in 0.00 W/m2
23:04 76.0 °F 51.9 °F 30.00 in Calm   5.0 mph 43% 0.00 in 0.00 W/m2
23:09 75.9 °F 51.8 °F 30.00 in ESE 4.0 mph 7.0 mph 43% 0.00 in 0.00 W/m2
23:14 75.9 °F 51.8 °F 30.00 in Calm   6.0 mph 43% 0.00 in 0.00 W/m2
23:19 75.8 °F 52.4 °F 30.00 in ESE 2.0 mph 7.0 mph 44% 0.00 in 0.00 W/m2
23:24 75.7 °F 52.3 °F 30.00 in Calm   9.0 mph 44% 0.00 in 0.00 W/m2
23:29 75.7 °F 52.3 °F 30.00 in Calm   8.0 mph 44% 0.00 in 0.00 W/m2
23:34 75.6 °F 52.8 °F 29.99 in Calm   6.0 mph 45% 0.00 in 0.00 W/m2
23:39 75.5 °F 52.7 °F 30.00 in East 7.0 mph 9.0 mph 45% 0.00 in 0.00 W/m2
23:44 75.5 °F 52.7 °F 30.00 in ESE 5.0 mph 11.0 mph 45% 0.00 in 0.00 W/m2
23:49 75.4 °F 52.6 °F 30.00 in Calm   9.0 mph 45% 0.00 in 0.00 W/m2
23:54 75.4 °F 52.6 °F 30.00 in Calm   12.0 mph 45% 0.00 in 0.00 W/m2
23:59 75.3 °F 53.1 °F 30.00 in East 7.0 mph 8.0 mph 46% 0.00 in 0.00 W/m2
Foresthill Weather
 WU-history PHP script courtesy of   Juneau County Weather.
powered by Cumulus v1.9.3 (1059)
Ambient Weather VWS v14.00
Top Contact Website Map Copyright © 2007 - 2018 Foresthillweather.com Never base important decisions on this or any weather information obtained from the Internet